Flag for Bosnia-Herzegovina Weather past 2 weeks in Sarajevo, Bosnia-Herzegovina

Now
50 °F

Light rain. Broken clouds.


Feels Like: 46 °F
Forecast: 29 / 39 °F
Wind: 12 mph from South

Location: Sarajevo / Butmir

Current Time: Jan 30, 2015 at 4:38:30 PM

Latest Report: Jan 30, 2015 at 4:00 PM


Visibility: 5 mi

Pressure: 28.85 "Hg

Humidity: 67%

Dew point: 39 °F

Location of SarajevoLocation

Historic Weather in Sarajevo — Graph

°F

Sarajevo temperature yesterday

Maximum temperature yesterday: 41 °F (at 8:30 PM)
Minimum temperature yesterday: 23 °F (at 3:00 AM)
Average temperature yesterday: 31 °F

Past Weeks' High & Low Weather Summary

 TemperatureHumidityPressure
High55 °F (Jan 18, 3:00 AM)100% (Jan 15, 5:30 PM)30.21 "Hg (Jan 15, 5:30 PM)
Low21 °F (Jan 16, 7:00 AM)59% (Jan 18, 3:00 AM)28.85 "Hg (Jan 30, 3:30 PM)
Average37 °F91%29.90 "Hg
* Reported Jan 15 3:00 PM — Jan 30 3:30 PM, Sarajevo, Weather by CustomWeather, © 2014

Note: Actual official high and low records may vary slightly from our data, if they occured in-between our weather recording intervals... More about our weather records

Advertising

Sarajevo weather history for previous 24 hours

 ConditionsComfort  
Time TempWeatherWind HumidityBarometerVisibility
3:30 PM
Jan 30
48 °FRain. Broken clouds.12 mph76%28.85 "Hg4 mi
3:00 PM48 °FLight rain. Broken clouds.8 mph76%28.88 "Hg4 mi
2:30 PM46 °FLight rain. Broken clouds.9 mph87%28.88 "Hg5 mi
2:00 PM45 °FLight rain. Broken clouds.7 mph93%28.88 "Hg5 mi
1:30 PM43 °FLight rain. Broken clouds.16 mph87%28.91 "Hg4 mi
1:00 PM41 °FRain. Broken clouds.16 mph93%28.91 "Hg4 mi
12:30 PM43 °FRain. Broken clouds.16 mph87%28.97 "Hg4 mi
12:00 PM43 °FRain. Broken clouds.23 mph87%28.97 "Hg4 mi
11:30 AM45 °FRain. Broken clouds.16 mph81%28.97 "Hg4 mi
11:00 AM45 °FRain. Partly sunny.17 mph81%29.00 "Hg4 mi
10:30 AM45 °FRain. Partly sunny.16 mph81%28.97 "Hg4 mi
10:00 AM45 °FRain. Partly sunny.22 mph81%29.00 "Hg4 mi
9:30 AM45 °FRain. Partly sunny.20 mph76%29.00 "Hg4 mi
9:00 AM45 °FRain. Partly sunny.20 mph76%29.00 "Hg4 mi
8:30 AM45 °FRain. Broken clouds.29 mph76%29.00 "Hg4 mi
8:00 AM45 °FRain. Broken clouds.17 mph76%29.06 "Hg4 mi
7:30 AM45 °FRain. Broken clouds.12 mph76%29.06 "Hg5 mi
7:00 AM45 °FLight rain. Passing clouds.14 mph76%29.06 "HgN/A
6:30 AM45 °FLight rain. Partly cloudy.18 mph76%29.09 "HgN/A
6:00 AM43 °FLight rain. Partly cloudy.16 mph81%29.12 "HgN/A
5:30 AM41 °FLight rain. Passing clouds.13 mph87%29.15 "HgN/A
5:00 AM41 °FLight rain. Passing clouds.13 mph81%29.15 "HgN/A
4:00 AM41 °FPassing clouds.14 mph81%29.18 "HgN/A
3:00 AM39 °FLight rain. Passing clouds.14 mph87%29.24 "HgN/A
2:00 AM39 °FRain. Passing clouds.10 mph93%29.30 "Hg6 mi
1:00 AM41 °FRain. Passing clouds.10 mph76%29.30 "HgN/A
12:00 AM41 °FPassing clouds.8 mph76%29.36 "HgN/A
11:00 PM
Jan 29
41 °FPassing clouds.12 mph70%29.42 "HgN/A
10:00 PM39 °FPassing clouds.3 mph70%29.42 "HgN/A
9:30 PM37 °FPassing clouds.6 mph75%29.45 "HgN/A
9:00 PM36 °FPassing clouds.2 mph81%29.45 "HgN/A
8:30 PM41 °FPassing clouds.9 mph81%29.47 "HgN/A
8:00 PM37 °FPassing clouds.6 mph81%29.47 "Hg4 mi
7:30 PM32 °FIce fog.2 mph93%29.50 "Hg2 mi
7:00 PM32 °FIce fog.2 mph93%29.53 "Hg2 mi
6:30 PM32 °FIce fog.2 mph93%29.53 "Hg3 mi
6:00 PM34 °FPartly cloudy.2 mph87%29.53 "Hg5 mi
5:30 PM34 °FPartly cloudy.1 mph87%29.53 "HgN/A
5:00 PM36 °FPassing clouds.1 mph81%29.53 "HgN/A
4:30 PM36 °FScattered clouds.2 mph81%29.56 "HgN/A
4:00 PM37 °FScattered clouds.2 mph75%29.56 "HgN/A
Weather by CustomWeather, © 2014

See weather overviewHow to use our weather pages